RH
23 27 34 41 52 54 54 55 50 44 42 49 45 44 36 34 36 38 36 36 35 35 39 40 37 32 30 34 33 26 21 27 34 40 60 70 79 87 86 88 93 96 96 96
23 22 28 37 43 46 49 52 48 44 45 51 50 46 40 38 36 37 35 36 35 36 39 42 38 37 30 32 32 28 22 23 30 42 59 72 81 86 84 87 88 90 90 90
27 27 30 37 41 47 49 55 58 55 48 53 58 57 48 38 33 32 33 34 36 36 39 43 40 39 31 30 32 31 23 22 28 39 52 67 79 87 89 89 88 87 84 85
34 33 40 43 46 48 47 58 64 79 84 78 73 66 49 40 37 34 34 30 31 32 37 41 39 37 35 31 33 32 22 22 28 36 44 56 62 69 75 82 82 82 83 81
33 37 43 47 43 51 52 60 74 84 92 84 72 74 48 41 38 35 32 31 30 31 34 38 36 33 36 32 33 33 22 22 29 34 40 46 49 55 59 64 66 70 78 82
26 31 39 45 51 59 66 78 77 86 96 98 72 74 50 39 35 33 36 32 30 30 34 34 34 34 35 33 34 35 22 24 29 34 37 39 43 47 51 55 60 67 79 83
24 34 41 50 64 70 86 96 98 99 98 89 62 62 49 38 38 38 39 35 31 34 35 37 39 34 33 32 35 34 23 23 28 31 35 38 41 44 46 49 54 61 66 72
33 36 35 52 62 68 84 96 95 90 92 79 56 51 40 38 41 43 41 37 35 38 36 39 40 37 34 31 32 36 28 22 23 30 32 37 39 41 43 48 51 53 57 59
42 37 35 46 56 68 77 87 84 93 97 95 77 52 42 46 43 45 44 40 40 42 40 43 43 41 35 31 32 34 37 28 24 25 32 35 37 39 42 45 48 50 53 53
50 56 43 48 57 68 72 77 91 96 95 96 72 73 62 49 47 46 45 45 44 46 46 48 46 48 38 31 32 36 38 35 28 27 28 33 34 37 41 44 48 54 57 59
68 62 53 50 61 70 79 82 96 97 91 98 97 87 87 74 55 52 52 52 48 49 52 54 51 50 49 37 36 40 42 43 38 33 32 31 35 36 37 40 44 48 51 58
66 67 58 43 47 63 72 81 89 98 96 84 95 94 91 81 72 59 55 56 54 55 56 55 52 53 55 49 43 45 46 44 46 45 40 36 35 36 38 38 40 44 47 49
65 70 66 46 61 75 82 82 86 95 91 97 99 93 92 90 76 69 65 60 61 63 59 57 55 56 66 59 50 48 47 49 51 48 49 44 38 39 38 40 43 44 46 49
36 52 63 69 90 94 98 88 88 94 98 83 92 84 83 91 85 77 72 70 66 65 62 61 58 56 60 66 73 67 54 55 56 55 53 51 45 43 44 44 45 47 48 51
41 44 44 69 71 66 94 85 96 96 96 97 83 90 83 90 89 85 76 72 69 69 66 63 62 62 63 63 68 79 75 67 61 64 59 55 55 49 50 52 52 53 52 53
52 49 45 61 73 64 68 77 82 89 96 93 90 89 87 81 82 85 80 74 69 70 69 67 65 63 64 69 66 65 68 79 80 68 63 62 60 60 59 58 59 62 59 56
68 62 55 59 69 70 73 67 68 74 78 83 81 72 74 78 79 77 76 72 69 67 63 62 63 58 58 64 66 63 65 67 70 74 74 72 68 64 61 65 68 68 66 62
76 72 65 61 67 72 63 62 61 65 62 63 60 66 74 78 76 75 72 70 64 59 52 49 49 45 44 47 52 56 60 60 65 67 68 75 77 75 69 67 65 64 67 67
61 62 70 65 62 56 53 58 60 57 56 56 56 65 67 73 78 76 76 72 65 59 56 49 45 42 36 35 36 38 47 53 55 60 64 63 66 76 79 77 72 69 71 71
48 53 63 58 67 70 48 60 59 57 64 57 56 69 66 74 80 82 78 69 60 55 52 50 43 36 36 35 37 37 36 40 47 55 59 59 57 61 66 75 80 77 80 75
66 57 56 58 67 68 45 48 52 58 73 60 56 62 63 70 76 84 76 66 63 61 54 42 36 32 33 35 36 36 36 37 40 43 50 58 61 59 59 63 71 78 79 79
86 89 81 76 76 70 56 54 58 70 65 58 68 66 68 68 60 60 57 48 41 40 37 33 29 28 30 31 32 32 32 33 33 36 39 43 52 59 62 60 63 70 78 83
98 79 82 75 69 70 66 70 71 74 87 85 80 78 76 76 74 64 56 47 44 39 35 34 34 34 34 33 32 33 34 35 34 34 34 33 43 53 63 65 66 71 78 84
96 92 96 84 89 80 85 97 83 89 92 88 89 83 79 74 71 67 59 50 45 40 38 39 38 37 36 35 34 35 36 37 37 36 37 40 37 43 56 69 73 76 80 86
93 94 95 96 96 93 96 95 96 87 78 77 76 72 71 64 58 56 50 47 45 43 42 42 41 40 39 39 41 41 41 41 41 41 41 44 45 47 47 57 71 82 87 90
89 94 99 96 96 96 98 98 96 90 86 77 66 64 61 60 58 53 51 49 47 48 48 48 46 46 44 43 44 47 48 49 49 50 51 50 51 55 57 58 62 74 83 89